This demonstration page uses our WeatherBlox Daily Observations layout. Learn more.

40.92945, -100.16068

Hourly Observations for December 8, 2015

Temp ( °F °C ) Dew Point ( °F °C ) Humidity (%) Winds ( mph kmh ) Pressure ( in mb ) Visibility ( mi km ) Precip ( " mm )
12:15 am 00:15 Clear 47 8.6 27 -2.8 45 45 SW 13 20 29.83 1010 10 16.0934 N/A
12:35 am 00:35 Clear 48 9 27 -2.9 43 43 SW 18 30 29.83 1010 10 16.0934 N/A
12:55 am 00:55 Clear 49 9.5 26 -3.2 41 41 WSW 17 28 29.8 1009 10 16.0934 N/A
1:15 am 01:15 Clear 48 8.8 26 -3.1 43 43 SW 17 28 29.8 1009 10 16.0934 N/A
1:35 am 01:35 Clear 47 8.3 27 -3 45 45 SW 15 24 29.77 1008 10 16.0934 N/A
1:55 am 01:55 Clear 47 8.1 27 -3 46 46 SW 17 28 29.77 1008 10 16.0934 N/A
2:15 am 02:15 Clear 47 8.1 26 -3.1 45 45 SSW 16 26 29.77 1008 10 16.0934 N/A
2:35 am 02:35 Clear 45 7.3 27 -3 48 48 SW 8 13 29.8 1009 10 16.0934 N/A
2:55 am 02:55 Clear 45 7.4 27 -3 48 48 W 5 7 29.8 1009 10 16.0934 N/A
3:15 am 03:15 Clear 46 7.6 27 -2.7 48 48 WNW 7 11 29.77 1008 10 16.0934 N/A
3:35 am 03:35 Partly Cloudy 45 7 28 -2.5 51 51 WSW 6 9 29.8 1009 10 16.0934 N/A
3:55 am 03:55 Mostly Cloudy 45 7.2 28 -2.2 52 52 WSW 10 17 29.8 1009 10 16.0934 N/A
4:15 am 04:15 Mostly Cloudy 44 6.5 28 -2.1 55 55 WSW 3 6 29.77 1008 10 16.0934 N/A
4:35 am 04:35 Mostly Cloudy 42 5.6 28 -2 58 58 WSW 3 6 29.77 1008 10 16.0934 N/A
4:55 am 04:55 Mostly Cloudy 41 5 28 -2 61 61 Calm 29.77 1008 10 16.0934 N/A
5:15 am 05:15 Mostly Cloudy 39 4 28 -2.1 65 65 Calm 29.8 1009 10 16.0934 N/A
5:35 am 05:35 Mostly Cloudy 40 4.2 28 -2 64 64 Calm 29.74 1007 10 16.0934 N/A
5:55 am 05:55 Partly Cloudy 38 3.2 29 -1.5 72 72 SW 5 7 29.8 1009 10 16.0934 N/A
6:15 am 06:15 Clear 38 3.6 29 -1.9 68 68 WSW 3 6 29.8 1009 10 16.0934 N/A
6:35 am 06:35 Clear 36 2.3 28 -2 74 74 W 7 11 29.8 1009 10 16.0934 N/A
6:55 am 06:55 Clear 35 1.5 27 -2.6 74 74 WSW 6 9 29.8 1009 10 16.0934 N/A
7:15 am 07:15 Clear 34 1.3 27 -2.9 74 74 WSW 6 9 29.83 1010 10 16.0934 N/A
7:35 am 07:35 Clear 35 1.6 27 -2.6 74 74 W 7 11 29.8 1009 10 16.0934 N/A
7:55 am 07:55 Sunny 34 1.1 27 -2.7 76 76 W 7 11 29.83 1010 10 16.0934 N/A
8:15 am 08:15 Sunny 32 -0.1 27 -3 81 81 NW 6 9 29.83 1010 10 16.0934 N/A
8:35 am 08:35 Sunny 34 0.9 28 -2.1 81 81 WNW 8 13 29.83 1010 10 16.0934 N/A
8:55 am 08:55 Sunny 37 2.9 31 -0.8 77 77 WNW 7 11 29.83 1010 10 16.0934 N/A
9:15 am 09:15 Sunny 39 4 31 -0.5 73 73 WNW 7 11 29.83 1010 10 16.0934 N/A
9:35 am 09:35 Sunny 42 5.7 33 0.3 69 69 WNW 10 17 29.8 1009 10 16.0934 N/A
9:55 am 09:55 Sunny 44 6.6 33 0.7 66 66 WNW 13 20 29.8 1009 10 16.0934 N/A
10:15 am 10:15 Sunny 45 7 34 1.1 66 66 WNW 12 19 29.8 1009 10 16.0934 N/A
10:35 am 10:35 Sunny 47 8.2 35 1.6 63 63 WNW 9 15 29.8 1009 10 16.0934 N/A
10:55 am 10:55 Sunny 50 10.2 36 2 57 57 WNW 15 24 29.8 1009 10 16.0934 N/A
11:15 am 11:15 Sunny 54 12.3 36 2.2 50 50 WNW 10 17 29.77 1008 10 16.0934 N/A
11:35 am 11:35 Sunny 56 13.4 36 2.4 48 48 W 12 19 29.77 1008 10 16.0934 N/A
11:55 am 11:55 Sunny 58 14.6 37 3 46 46 NW 15 24 29.74 1007 10 16.0934 N/A
12:15 pm 12:15 Sunny 61 16 37 2.8 41 41 NNW 16 26 29.74 1007 10 16.0934 N/A
12:35 pm 12:35 Sunny 62 16.8 38 3.3 41 41 NNW 13 20 29.74 1007 10 16.0934 N/A
12:55 pm 12:55 Sunny 63 17.1 38 3.3 40 40 NNW 23 37 29.74 1007 10 16.0934 N/A
1:15 pm 13:15 Sunny 63 17.3 37 3 39 39 NNW 20 31 29.74 1007 10 16.0934 N/A
1:35 pm 13:35 Sunny 63 17.3 37 2.5 37 37 NNW 20 31 29.74 1007 10 16.0934 N/A
1:55 pm 13:55 Sunny 63 17.3 37 2.5 37 37 NW 17 28 29.71 1006 10 16.0934 N/A
2:15 pm 14:15 Sunny 64 17.7 36 2.2 36 36 NNW 16 26 29.68 1005 10 16.0934 N/A
2:35 pm 14:35 Sunny 64 18 35 1.9 34 34 NNW 21 33 29.68 1005 10 16.0934 N/A
2:55 pm 14:55 Sunny 64 18 34 1.1 32 32 NW 18 30 29.68 1005 10 16.0934 N/A
3:15 pm 15:15 Sunny 64 18 34 1.3 33 33 NNW 17 28 29.68 1005 10 16.0934 N/A
3:35 pm 15:35 Sunny 64 18 34 1 32 32 NW 22 35 29.68 1005 10 16.0934 N/A
3:55 pm 15:55 Sunny 62 16.6 32 0.2 33 33 NNW 18 30 29.74 1007 10 16.0934 N/A
4:15 pm 16:15 Sunny 60 15.8 34 1.1 37 37 NW 14 22 29.77 1008 10 16.0934 N/A
4:35 pm 16:35 Sunny 60 15.6 34 1.1 38 38 NNW 12 19 29.77 1008 10 16.0934 N/A
4:55 pm 16:55 Sunny 58 14.2 35 1.6 43 43 NNW 10 17 29.8 1009 10 16.0934 N/A
5:15 pm 17:15 Clear 54 12.3 35 1.6 48 48 NNW 9 15 29.8 1009 10 16.0934 N/A
5:35 pm 17:35 Clear 48 8.9 34 1.2 59 59 NNW 9 15 29.85 1011 10 16.0934 N/A
5:55 pm 17:55 Clear 46 7.8 34 1.2 63 63 NNW 10 17 29.88 1012 10 16.0934 N/A
6:15 pm 18:15 Clear 44 6.6 33 0.4 65 65 NW 8 13 29.91 1013 10 16.0934 N/A
6:35 pm 18:35 Clear 40 4.4 32 0.1 74 74 NNW 7 11 29.91 1013 10 16.0934 N/A
6:55 pm 18:55 Clear 38 3.5 31 -0.3 76 76 W 7 11 29.94 1014 10 16.0934 N/A
7:15 pm 19:15 Clear 38 3.3 32 -0.1 79 79 NW 6 9 29.94 1014 10 16.0934 N/A
7:35 pm 19:35 Clear 36 2.1 31 -0.8 81 81 W 8 13 29.97 1015 10 16.0934 N/A
7:55 pm 19:55 Clear 37 2.6 31 -0.3 81 81 W 8 13 29.94 1014 10 16.0934 N/A
8:15 pm 20:15 Clear 37 2.6 31 -0.3 81 81 W 6 9 29.94 1014 10 16.0934 N/A
8:35 pm 20:35 Clear 36 2 31 -0.6 83 83 W 8 13 29.97 1015 10 16.0934 N/A
8:55 pm 20:55 Clear 35 1.7 31 -0.7 84 84 W 10 17 29.97 1015 10 16.0934 N/A
9:15 pm 21:15 Clear 37 2.5 32 -0.1 83 83 W 9 15 29.94 1014 10 16.0934 N/A
9:35 pm 21:35 Clear 36 2 31 -0.4 84 84 W 8 13 29.97 1015 10 16.0934 N/A
9:55 pm 21:55 Clear 38 3.6 32 0.1 78 78 W 9 15 29.97 1015 10 16.0934 N/A
10:15 pm 22:15 Clear 37 2.9 32 -0.1 81 81 WNW 9 15 29.94 1014 10 16.0934 N/A
10:35 pm 22:35 Clear 35 1.8 31 -0.7 84 84 WNW 6 9 30 1016 10 16.0934 N/A
10:55 pm 22:55 Clear 33 0.7 29 -1.4 86 86 NW 5 7 30 1016 10 16.0934 N/A
11:15 pm 23:15 Clear 33 0.3 29 -1.4 89 89 NW 5 7 30 1016 10 16.0934 N/A
11:35 pm 23:35 Clear 32 -0.2 28 -2 88 88 NW 6 9 30 1016 10 16.0934 N/A
11:55 pm 23:55 Clear 32 0 29 -1.5 90 90 NW 6 9 30 1016 10 16.0934 N/A

Powered by AerisWeather